CW8429 Weather Reports


Display with metric or nautical units.
time (UTC)temp
F
wind
direction
speed
MPH
gust
MPH
rain 1hr
in
rain 24hr
in
rain mn
in
humidity
%
barometer
mb
20260506133628 32 96 4.0 6.0 0.00 0.37 0.00 82 1017.2
20260506132635 32 130 2.0 6.0 0.00 0.37 0.00 81 1017.1
20260506131623 32 146 3.0 5.0 0.00 0.37 0.00 81 1017.0
20260506130619 32 139 3.0 7.0 0.00 0.37 0.00 81 1016.8
20260506125643 31 136 3.0 9.0 0.00 0.40 0.00 81 1016.7
20260506124612 31 152 2.0 6.0 0.00 0.40 0.00 83 1016.4
20260506123619 32 161 3.0 6.0 0.00 0.40 0.00 83 1016.3
20260506122612 32 167 5.0 9.0 0.00 0.40 0.00 82 1016.2
20260506121621 32 227 3.0 4.0 0.00 0.40 0.00 82 1016.0
20260506120638 32 198 2.0 6.0 0.00 0.40 0.00 82 1015.7
20260506060632 36 52 11.0 16.0 0.00 0.64 0.00 82 1013.4
20260506050630 40 22 11.0 22.0 0.00 0.64 0.64 73 1011.2
20260506044644 42 24 11.0 22.0 0.00 0.64 0.64 71 1010.3
20260506043650 43 107 10.0 18.0 0.00 0.64 0.64 73 1010.1
20260506042617 44 111 10.0 21.0 0.00 0.64 0.64 72 1010.0
20260506041652 45 106 14.0 25.0 0.00 0.64 0.64 71 1009.6
20260506040620 46 114 10.0 21.0 0.00 0.64 0.64 68 1009.2
20260506035620 51 69 10.0 19.0 0.00 0.64 0.64 56 1009.1
20260506034648 51 191 3.0 5.0 0.00 0.64 0.64 51 1008.6
20260506033614 50 143 2.0 5.0 0.00 0.64 0.64 55 1008.7
20260506032645 50 130 2.0 9.0 0.00 0.64 0.64 55 1008.6
20260506031616 50 171 5.0 7.0 0.00 0.64 0.64 56 1008.3
20260506030626 50 13 0.0 4.0 0.00 0.64 0.64 61 1008.1
20260506025647 50 19 2.0 4.0 0.00 0.64 0.64 62 1007.9
20260506024615 50 24 1.0 5.0 0.00 0.64 0.64 63 1007.8
20260506023628 50 304 0.0 0.0 0.00 0.64 0.64 63 1007.6
20260506022617 50 304 0.0 2.0 0.00 0.64 0.64 63 1007.5
20260506021626 50 304 1.0 9.0 0.00 0.64 0.64 62 1007.3
20260506020621 51 304 6.0 11.0 0.00 0.64 0.64 58 1007.3
20260506015623 52 286 8.0 11.0 0.00 0.64 0.64 55 1007.1
20260506014613 53 310 9.0 13.0 0.00 0.64 0.64 53 1007.0
20260506013622 54 308 10.0 15.0 0.00 0.64 0.64 50 1007.0
20260506012615 55 350 9.0 15.0 0.00 0.64 0.64 52 1006.9
20260506011626 54 295 9.0 14.0 0.00 0.64 0.64 50 1006.8
20260506010637 55 282 5.0 16.0 0.00 0.64 0.64 45 1006.8
20260506005617 57 292 10.0 16.0 0.00 0.64 0.64 42 1006.8
20260506004628 57 288 4.0 7.0 0.00 0.64 0.64 44 1006.8
20260506003617 57 288 3.0 8.0 0.00 0.64 0.64 48 1006.7
20260506002628 57 300 3.0 9.0 0.00 0.64 0.64 46 1006.8
20260506001619 58 311 5.0 13.0 0.00 0.64 0.64 47 1006.7
20260506000630 58 307 5.0 10.0 0.00 0.64 0.64 50 1006.6
20260505235630 58 291 3.0 16.0 0.00 0.64 0.64 51 1006.6
20260505234641 59 351 8.0 15.0 0.00 0.64 0.64 49 1006.5
20260505233618 59 311 5.0 11.0 0.00 0.64 0.64 49 1006.4
20260505232612 58 302 5.0 12.0 0.00 0.64 0.64 51 1006.3
20260505231622 57 299 6.0 11.0 0.00 0.64 0.64 53 1006.4
20260505230629 58 330 5.0 9.0 0.00 0.64 0.64 52 1006.4
20260505225631 58 279 2.0 8.0 0.00 0.64 0.64 53 1006.4
20260505224626 57 181 2.0 7.0 0.00 0.64 0.64 54 1006.4
20260505223636 56 183 2.0 12.0 0.00 0.64 0.64 54 1006.5
20260505222646 56 254 5.0 12.0 0.00 0.64 0.64 54 1006.6
20260505221614 55 93 8.0 14.0 0.00 0.64 0.64 63 1006.6
20260505220646 55 116 7.0 13.0 0.00 0.64 0.64 62 1006.8
20260505215630 55 84 3.0 12.0 0.00 0.64 0.64 63 1006.9
20260505214617 54 105 5.0 13.0 0.00 0.64 0.64 66 1007.2
20260505213624 54 160 7.0 15.0 0.00 0.64 0.64 65 1007.4
20260505212613 54 144 5.0 8.0 0.00 0.64 0.64 63 1007.6
20260505211625 53 205 6.0 11.0 0.00 0.64 0.64 64 1007.7
20260505210613 52 219 2.0 9.0 0.00 0.64 0.64 67 1007.9
20260505205631 52 104 4.0 12.0 0.00 0.64 0.64 68 1008.1
20260505204619 52 106 8.0 12.0 0.00 0.64 0.64 71 1008.3
20260505203631 50 126 5.0 15.0 0.00 0.64 0.64 72 1008.4
20260505202620 50 113 7.0 14.0 0.00 0.64 0.64 70 1008.4
20260505201630 50 142 9.0 11.0 0.00 0.64 0.64 70 1008.7
20260505200623 49 112 8.0 14.0 0.00 0.64 0.64 72 1008.7
20260505195626 49 127 6.0 16.0 0.00 0.64 0.64 75 1008.8
20260505194615 48 97 9.0 15.0 0.00 0.64 0.64 73 1008.9
20260505193623 47 149 9.0 16.0 0.00 0.64 0.64 74 1009.0
20260505192613 47 93 9.0 14.0 0.00 0.64 0.64 75 1009.1
20260505191641 47 133 9.0 11.0 0.00 0.64 0.64 76 1009.2
20260505190629 47 121 5.0 16.0 0.00 0.64 0.64 77 1009.2
20260505185630 47 156 8.0 15.0 0.00 0.64 0.64 78 1009.3
20260505184624 46 180 8.0 16.0 0.00 0.64 0.64 79 1009.5
20260505183630 45 174 5.0 14.0 0.00 0.64 0.64 82 1009.6
20260505182615 45 99 8.0 15.0 0.00 0.64 0.64 80 1009.6
20260505181621 45 82 9.0 12.0 0.00 0.64 0.64 80 1009.7
20260505180627 45 150 6.0 12.0 0.00 0.64 0.64 84 1009.7
20260505175630 43 128 8.0 14.0 0.00 0.64 0.64 82 1009.8
20260505174617 43 119 9.0 12.0 0.00 0.64 0.64 84 1009.9
20260505173625 42 119 8.0 13.0 0.00 0.64 0.64 86 1010.1
20260505172651 42 109 5.0 14.0 0.00 0.64 0.64 88 1009.9
20260505171622 41 185 6.0 13.0 0.00 0.64 0.64 88 1009.9
20260505170612 41 105 6.0 11.0 0.01 0.64 0.64 87 1009.9
20260505165613 41 227 1.0 3.0 0.03 0.64 0.64 88 1010.1
20260505164621 40 250 1.0 3.0 0.06 0.64 0.64 91 1010.0
20260505163613 39 188 3.0 4.0 0.11 0.64 0.64 90 1010.1
20260505162622 38 163 0.0 5.0 0.15 0.64 0.64 90 1010.1
20260505161630 38 170 3.0 6.0 0.17 0.64 0.64 89 1010.0
20260505160618 38 165 4.0 9.0 0.18 0.63 0.63 89 1010.1
20260505152612 41 96 2.0 9.0 0.06 0.49 0.49 87 1010.1
20260505151624 42 70 3.0 6.0 0.06 0.46 0.46 86 1010.1
20260505150632 42 46 2.0 4.0 0.06 0.45 0.45 88 1010.0
20260505140631 43 13 2.0 4.0 0.12 0.39 0.39 88 1009.5